STARLINK-1713, 46360

Orbit data source: Space-Track

STARLINK-1713, 46360 is a payload satellite owned by SpaceX/Seattle (US) in LEO that was launched on Thu, 03 Sep 2020 UTC via an FALCON 9 launch vehicle from the Air Force Eastern Test Range (AFETR). Payload-class satellites include a variety of spacecraft equipped with specific instruments for various scientific and technological missions. These include communications satellites like Starlink; space stations such as the ISS; scientific satellites like the Hubble; Earth observation satellites from companies like Planet Labs, Umbra, and HawkEye 360; GPS; miniature CubeSats for education and research; and military/defense satellites.

Loading next visibility...
Identifier
46360, 2020-062AM
Orbit
LEO
Last TLE update
17 hours ago
Origin
Manufacturer
SpaceX/Seattle
Mission
Partially operational Commercial Communications
Bus & Motor
STARLINK, Unknown motor
Mass
260 kg wet, ~248 kg dry
Launch date (UTC)
2020-09-03 (5 years ago)
Launch vehicle
FALCON 9
Launch site
Air Force Eastern Test Range (AFETR)
Object type
Payload
Rocket body
Debris
Shape & HBR
Box + 1 Pan, 8.86 m
Radar Cross Section
13.562 m², Large (>1 m²)

Expand to show TLE details & history

TLE from 17 hours ago
0 STARLINK-1713
1 46360U 20062AM  25162.91668981  .00089631  00000-0  17580-2 0  9993
2 46360  53.0485  94.7477 0006615  91.6876  30.3308 15.46600954264480
Epoch: 2025-06-11T22:00Z
TLE epoch observation values (Epoch: 2025-06-11T22:00:01.999Z)
Latitude
42.77011°
Longitude
0.46087°
Altitude
426.965 km
Speed
7.663 km/s
True Right ascension
15h 23m 50s
True Declination
42° 35' 25"
Sunlit
Object was in daylight at epoch
Visualization orbit readout
Latitude
-2.69191°
Longitude
42.81526°
Altitude
427.525 km
Speed
7.656 km/s
Apparent Right ascension
16h 23m 12s
Apparent Declination
-24° 08' 48"
Sunlit
Object is in full shadow
Visualization observer readout
Local Sidereal Time
01:43:44
Azimuth
283.054° WNW
Elevation
-53.096°
Doppler factor
1
Orbital elements
Apogee altitude
431.456 km
Perigee altitude
422.453 km
Semi-major axis
6,805.091 km
Eccentricity
0.00066
Inclination
53.0485°
RAAN
94.7477°
Arg. of periapsis
91.6876°
True anomaly
Unknown
Mean anomaly
30.3308°
Eccentric anomaly
Unknown
Mean motion
3.86627 °/min
Orbital period
93.11 mins
BSTAR
0.001758
Loading maneuver chart data...
Loading SW <> Apogee altitude chart data...
Loading historical data...
Loading historical data...
Loading historical data...
Loading historical data...
Loading historical data...
Loading historical data...
Loading historical data...

STARLINK-1713 Visibility forecast

Observer location: undefined°, undefined°

Span
Click to sort rows by Start time (UTC) header in descending order
Start Az.
Max El. time (UTC)
Max El. Az.
Max El.
End time (UTC)
End Az.
4 mins2025-06-12 22:30:23.463Z257.172° W2025-06-12 22:32:23.463Z356.426° N36.884°2025-06-12 22:34:23.463Z38.28° NE
5 mins2025-06-13 05:00:23.463Z302.8° NW2025-06-13 05:02:23.463Z247.149° WSW42.918°2025-06-13 05:05:23.463Z139.206° SSE
|